Overview Statistics Trail Chart Weather Telemetry Raw packets
 

This is the latest recevied weather packets stored in our database for station/object WI0K. If no packets are shown the sender has not sent any weather packets the latest 10 day(s).

<< 75 76 77 78 79 80 81 >>
Time Temp. Humidity Pressure Rain* Wind** Luminosity Snow
1788129181 19.44° C 63% 1020.4 hPa 0 mm - 204 W/m² -
1788128880 20° C 63% 833.2 hPa 0 mm - 187 W/m² -
1788128579 20° C 61% 1020.7 hPa 0 mm - 58 W/m² -
1788128279 21.11° C 55% 1020.9 hPa 0 mm - 46 W/m² -
1788127978 21.67° C 49% 1020.9 hPa 0 mm - 41 W/m² -
1788127677 21.67° C 45% 1020.7 hPa 0 mm - 32 W/m² -
1788127377 21.67° C 46% 1020.4 hPa 0 mm - 28 W/m² -
1788127076 21.67° C 46% 1020.4 hPa 0 mm - 33 W/m² -
1788126775 21.67° C 46% 1020.3 hPa 0 mm - 49 W/m² -
1788126474 21.67° C 46% 1020.3 hPa 0 mm - 79 W/m² -
1788126173 22.22° C 45% 1020.3 hPa 0 mm - 134 W/m² -
1788125873 22.22° C 45% 1020.3 hPa 0 mm - 264 W/m² -
1788125572 22.22° C 45% 1020.3 hPa 0 mm - 347 W/m² -
1788125270 22.78° C 45% 1020.4 hPa 0 mm - 264 W/m² -
1788124969 22.78° C 45% 1020.5 hPa 0 mm - 292 W/m² -
1788124668 23.33° C 47% 1020.5 hPa 0 mm - 381 W/m² -
1788124368 23.33° C 50% 1020.5 hPa 0 mm - 500 W/m² -
1788124067 23.33° C 49% 1020.5 hPa 0 mm - 352 W/m² -
1788123766 23.89° C 48% 1020.4 hPa 0 mm - 311 W/m² -
1788123465 24.44° C 48% 1020.4 hPa 0 mm - 212 W/m² -
1788123164 25° C 43% 1020.1 hPa 0 mm - 118 W/m² -
1788122864 25° C 43% 1019.7 hPa 0 mm - 157 W/m² -
1788122563 25.56° C 43% 1019.6 hPa 0 mm - 405 W/m² -
1788122262 25.56° C 43% 1019.4 hPa 0 mm - 457 W/m² -
1788121961 26.11° C 42% 1019 hPa 0 mm - 492 W/m² -

* Rain latest hour (hover to see other rain measurements)
** Current wind speed in m/s (hover to see current wind gust speed)